Printer-friendly version

IAU Minor Planet Center

Minor Planet Center

MPEC 2002-H13 : 2002 GD11

The following Minor Planet Electronic Circular may be linked-to from your own Web pages, but must not otherwise be redistributed electronically.


Read MPEC 2002-H12 Read MPEC 2002-H14


M.P.E.C. 2002-H13                                Issued 2002 Apr. 17, 21:19 UT

     The Minor Planet Electronic Circulars contain information on unusual
         minor planets and routine data on comets.  They are published
   on behalf of Commission 20 of the International Astronomical Union by the
          Minor Planet Center, Smithsonian Astrophysical Observatory,
                          Cambridge, MA 02138, U.S.A.

             Prepared using the Tamkin Foundation Computer Network

                              MPC@CFA.HARVARD.EDU
          URL http://cfa-www.harvard.edu/iau/mpc.html  ISSN 1523-6714

                                   2002 GD11

Observations:
     K02G11D  C2002 04 08.33909 15 52 36.73 -01 59 59.2          18.8        704
     K02G11D  C2002 04 08.35108 15 52 37.03 -01 59 56.9          18.7        704
     K02G11D  C2002 04 08.37496 15 52 37.79 -01 59 48.8          19.0        704
     K02G11D  C2002 04 10.36575 15 53 41.65 -01 48 51.4          18.6        704
     K02G11D  C2002 04 10.37740 15 53 41.99 -01 48 47.5          18.8        704
     K02G11D  C2002 04 10.38907 15 53 42.26 -01 48 44.0          19.1        704
     K02G11D  C2002 04 10.40080 15 53 42.56 -01 48 41.0          18.8        704
     K02G11D  C2002 04 10.41260 15 53 42.82 -01 48 36.2          19.1        704
     K02G11D* C2002 04 14.32891 15 55 26.65 -01 26 40.6          18.8 V      291
     K02G11D  C2002 04 14.33330 15 55 26.72 -01 26 39.0          19.4 V      291
     K02G11D  C2002 04 14.33816 15 55 26.81 -01 26 37.5          19.4 V      291
     K02G11D  C2002 04 17.34543 15 56 25.42 -01 09 41.9          18.7        704
     K02G11D  C2002 04 17.35878 15 56 25.57 -01 09 37.2          18.8        704
     K02G11D  C2002 04 17.37200 15 56 25.74 -01 09 33.0          19.2        704
     K02G11D  C2002 04 17.38566 15 56 25.93 -01 09 28.7          18.9        704

Observer details:
291 LPL/Spacewatch II.  Observer R. S. McMillan.  1.8-m Spacewatch telescope.
704 Lincoln Laboratory ETS, New Mexico.  Observers M. Blythe, F. Shelly,
    M. Bezpalko, R. Huber, L. Manguso, S. Adams, J. Piscitelli.  Measurers
    J. Stuart, R. Sayer, J. B. Evans, H. Viggh.  1.0-m f/2.15 reflector + CCD.

Orbital elements:
2002 GD11
Epoch 2002 Mar. 27.0 TT = JDT 2452360.5                 MPC
M 319.32908              (2000.0)            P               Q
n   0.31931882     Peri.  202.19050     +0.45516866     +0.87657063
a   2.1199211      Node    95.18583     -0.79153158     +0.47875914
e   0.4427976      Incl.    9.03240     -0.40779805     +0.04912849
P   3.09           H   17.9           G   0.15
From 15 observations 2002 Apr. 8-17.

Ephemeris:
2002 GD11                a,e,i = 2.12, 0.44, 9                   q = 1.1812
Date    TT    R. A. (2000) Decl.     Delta      r     Elong.  Phase     V
2002 04 06    15 51.20   -02 12.4    0.761    1.641   136.9    24.6    19.5
2002 04 16    15 56.02   -01 17.1    0.657    1.583   144.1    21.8    19.0
2002 04 26    15 57.49   -00 23.4    0.566    1.526   151.1    18.6    18.5
2002 05 06    15 55.30   +00 16.0    0.488    1.470   157.0    15.5    18.0
2002 05 16    15 49.50   +00 23.2    0.424    1.417   160.1    14.1    17.6
2002 05 26    15 41.07   -00 23.9    0.374    1.367   158.1    16.0    17.3
2002 06 05    15 31.76   -02 24.5    0.336    1.321   152.2    21.0    17.2
2002 06 15    15 24.01   -05 50.9    0.308    1.279   144.5    27.5    17.1
2002 06 25    15 20.57   -10 43.0    0.290    1.244   136.8    34.0    17.1
2002 07 05    15 23.56   -16 47.1    0.280    1.216   130.0    39.8    17.1
2002 07 15    15 34.79   -23 39.5    0.276    1.195   124.6    44.4    17.2
2002 07 25    15 55.90   -30 46.1    0.280    1.184   120.8    47.5    17.3
2002 08 04    16 27.96   -37 22.3    0.291    1.182   118.6    48.9    17.4
2002 08 14    17 11.28   -42 37.7    0.310    1.189   117.6    49.0    17.6
2002 08 24    18 03.55   -45 49.3    0.337    1.205   117.6    48.1    17.8
2002 09 03    18 59.00   -46 38.3    0.375    1.229   117.9    46.5    18.0
2002 09 13    19 51.27   -45 19.6    0.423    1.262   118.1    44.7    18.2
2002 09 23    20 36.65   -42 30.3    0.481    1.300   118.0    43.0    18.5
2002 10 03    21 14.55   -38 49.1    0.550    1.344   117.2    41.5    18.9
2002 10 13    21 46.31   -34 44.3    0.632    1.393   115.7    40.2    19.2
2002 10 23    22 13.52   -30 34.1    0.724    1.445   113.4    39.2    19.6
2002 11 02    22 37.47   -26 28.6    0.828    1.499   110.6    38.3    19.9
2002 11 12    22 59.22   -22 32.5    0.942    1.556   107.2    37.4    20.2
2002 11 22    23 19.46   -18 47.9    1.067    1.613   103.4    36.6    20.6
2002 12 02    23 38.65   -15 15.5    1.201    1.671    99.2    35.6    20.9
2002 12 12    23 57.15   -11 54.9    1.343    1.729    94.7    34.6    21.2
2002 12 22    00 15.19   -08 45.5    1.492    1.788    90.1    33.4    21.4
2003 01 01    00 32.91   -05 46.8    1.646    1.845    85.2    32.1    21.7
2003 01 11    00 50.45   -02 58.2    1.804    1.903    80.2    30.6    21.9
2003 01 21    01 07.88   -00 19.1    1.965    1.959    75.2    29.1    22.1

Timothy B. Spahr             (C) Copyright 2002 MPC           M.P.E.C. 2002-H13

Read MPEC 2002-H12 Read MPEC 2002-H14


Our Web policy. Index to the CBAT/MPC/ICQ pages.


Valid HTML 4.01!